When you browse on this site, cookies collect data to enhance your experience and personalize the content and advertising you see.
Visit our Privacy Policy to learn more. By continuing to use the site, you agree to this use of cookies and data.
  • în România
  • Lista ţărilor
  • Pe 7 zile
  • Temperatura apei
  • Hartă satelitară
  • Meteo pe hartă
  • Widget-uri
  • user-avatar
    Intrare

    Meteo pe oră la Arpino

    Astăzi, 22 Februarie, Vineri

    Timp Temperatura Precipitaţii Vânt Presiune Umiditate
    00:00 +7°C° 0 mm 1 m/s 730 mmHg 78%
    01:00 +7°C° 0 mm 1 m/s 730 mmHg 77%
    02:00 +7°C° 0 mm 1 m/s 730 mmHg 75%
    03:00 +7°C° 0 mm 1 m/s 730 mmHg 74%
    04:00 +7°C° 0 mm 1 m/s 730 mmHg 72%
    05:00 +7°C° 0 mm 1 m/s 729 mmHg 70%
    06:00 +6°C° 0 mm 1 m/s 729 mmHg 68%
    07:00 +6°C° 0 mm 1 m/s 729 mmHg 67%
    08:00 +8°C° 0 mm 1 m/s 729 mmHg 60%
    09:00 +11°C° 0 mm 1 m/s 729 mmHg 54%
    10:00 +13°C° 0 mm 1 m/s 729 mmHg 47%
    11:00 +14°C° 0 mm 1 m/s 729 mmHg 46%
    12:00 +14°C° 0 mm 1 m/s 729 mmHg 44%
    13:00 +15°C° 0 mm 1 m/s 729 mmHg 43%
    14:00 +15°C° 0 mm 1 m/s 728 mmHg 46%
    15:00 +15°C° 0 mm 1 m/s 728 mmHg 49%
    16:00 +14°C° 0 mm 1 m/s 728 mmHg 52%
    17:00 +12°C° 0 mm 1 m/s 728 mmHg 57%
    18:00 +10°C° 0 mm 2 m/s 728 mmHg 61%
    19:00 +8°C° 0 mm 2 m/s 728 mmHg 66%
    20:00 +8°C° 0.1 mm 2 m/s 728 mmHg 67%
    21:00 +8°C° 0.1 mm 2 m/s 729 mmHg 69%
    22:00 +8°C° 0.1 mm 3 m/s 729 mmHg 71%
    23:00 +7°C° 0 mm 3 m/s 729 mmHg 72%

    Mâine, 23 Februarie, Sâmbătă

    Timp Temperatura Precipitaţii Vânt Presiune Umiditate
    00:00 +5°C° 0 mm 3 m/s 729 mmHg 73%
    01:00 +5°C° 0 mm 3 m/s 729 mmHg 75%
    02:00 +4°C° 0 mm 3 m/s 729 mmHg 74%
    03:00 +3°C° 0 mm 3 m/s 729 mmHg 73%
    04:00 +2°C° 0 mm 3 m/s 729 mmHg 72%
    05:00 +2°C° 0 mm 3 m/s 729 mmHg 71%
    06:00 +2°C° 0 mm 3 m/s 729 mmHg 70%
    07:00 +1°C° 0 mm 3 m/s 729 mmHg 70%
    08:00 +1°C° 0 mm 4 m/s 730 mmHg 59%
    09:00 +2°C° 0 mm 5 m/s 730 mmHg 48%
    10:00 +3°C° 0 mm 5 m/s 730 mmHg 37%
    11:00 +3°C° 0 mm 5 m/s 730 mmHg 36%
    12:00 +3°C° 0 mm 5 m/s 730 mmHg 34%
    13:00 +3°C° 0 mm 6 m/s 730 mmHg 32%
    14:00 +2°C° 0 mm 6 m/s 729 mmHg 35%
    15:00 +1°C° 0 mm 6 m/s 729 mmHg 38%
    16:00 -1°C° 0 mm 6 m/s 729 mmHg 40%
    17:00 0°C° 0 mm 5 m/s 729 mmHg 45%
    18:00 -1°C° 0 mm 5 m/s 729 mmHg 49%
    19:00 -2°C° 0 mm 5 m/s 729 mmHg 54%
    20:00 -2°C° 0 mm 4 m/s 730 mmHg 55%
    21:00 -2°C° 0 mm 4 m/s 730 mmHg 56%
    22:00 -2°C° 0 mm 4 m/s 730 mmHg 57%
    23:00 -2°C° 0 mm 4 m/s 730 mmHg 57%

    Poimâine, 24 Februarie, Duminică

    Timp Temperatura Precipitaţii Vânt Presiune Umiditate
    00:00 -3°C° 0 mm 4 m/s 730 mmHg 57%
    01:00 -2°C° 0 mm 3 m/s 730 mmHg 58%
    02:00 -2°C° 0 mm 3 m/s 730 mmHg 59%
    03:00 -2°C° 0 mm 3 m/s 730 mmHg 59%
    04:00 -2°C° 0 mm 2 m/s 730 mmHg 60%
    05:00 -2°C° 0 mm 3 m/s 730 mmHg 60%
    06:00 -2°C° 0 mm 3 m/s 730 mmHg 61%
    07:00 -2°C° 0 mm 3 m/s 730 mmHg 61%
    08:00 0°C° 0 mm 3 m/s 730 mmHg 54%
    09:00 +1°C° 0 mm 3 m/s 730 mmHg 48%
    10:00 +3°C° 0 mm 4 m/s 731 mmHg 41%
    11:00 +4°C° 0 mm 4 m/s 731 mmHg 40%
    12:00 +4°C° 0 mm 4 m/s 730 mmHg 39%
    13:00 +5°C° 0 mm 4 m/s 730 mmHg 38%
    14:00 +5°C° 0 mm 4 m/s 730 mmHg 40%
    15:00 +4°C° 0 mm 3 m/s 730 mmHg 42%
    16:00 +4°C° 0 mm 3 m/s 730 mmHg 43%
    17:00 +3°C° 0 mm 3 m/s 731 mmHg 48%
    18:00 +1°C° 0 mm 3 m/s 731 mmHg 54%
    19:00 0°C° 0 mm 3 m/s 731 mmHg 59%
    20:00 -1°C° 0 mm 3 m/s 732 mmHg 58%
    21:00 -1°C° 0 mm 3 m/s 732 mmHg 58%
    22:00 -1°C° 0 mm 3 m/s 733 mmHg 57%
    23:00 -1°C° 0 mm 3 m/s 733 mmHg 56%

    25 Februarie, Luni

    Timp Temperatura Precipitaţii Vânt Presiune Umiditate
    00:00 0°C° 0 mm 3 m/s 733 mmHg 55%
    01:00 0°C° 0 mm 3 m/s 733 mmHg 53%
    02:00 0°C° 0 mm 3 m/s 733 mmHg 53%
    03:00 0°C° 0 mm 3 m/s 733 mmHg 53%
    04:00 0°C° 0 mm 3 m/s 733 mmHg 53%
    05:00 0°C° 0 mm 3 m/s 732 mmHg 52%
    06:00 0°C° 0 mm 3 m/s 732 mmHg 51%
    07:00 0°C° 0 mm 3 m/s 732 mmHg 49%
    08:00 +2°C° 0 mm 3 m/s 732 mmHg 45%
    09:00 +5°C° 0 mm 3 m/s 733 mmHg 41%
    10:00 +8°C° 0 mm 3 m/s 733 mmHg 36%
    11:00 +9°C° 0 mm 3 m/s 733 mmHg 35%
    12:00 +11°C° 0 mm 3 m/s 733 mmHg 33%
    13:00 +12°C° 0 mm 3 m/s 732 mmHg 32%
    14:00 +11°C° 0 mm 3 m/s 732 mmHg 34%
    15:00 +11°C° 0 mm 3 m/s 732 mmHg 37%
    16:00 +10°C° 0 mm 3 m/s 731 mmHg 40%
    17:00 +8°C° 0 mm 3 m/s 731 mmHg 49%
    18:00 +5°C° 0 mm 3 m/s 731 mmHg 57%
    19:00 +3°C° 0 mm 3 m/s 731 mmHg 66%
    20:00 +2°C° 0 mm 3 m/s 731 mmHg 69%
    21:00 +2°C° 0 mm 3 m/s 731 mmHg 71%
    22:00 +2°C° 0 mm 3 m/s 731 mmHg 74%
    23:00 +2°C° 0 mm 3 m/s 730 mmHg 74%

    26 Februarie, Marţi

    Timp Temperatura Precipitaţii Vânt Presiune Umiditate
    00:00 +2°C° 0 mm 3 m/s 730 mmHg 75%
    01:00 +2°C° 0 mm 3 m/s 730 mmHg 75%
    02:00 +2°C° 0 mm 3 m/s 730 mmHg 77%
    03:00 +2°C° 0 mm 3 m/s 729 mmHg 79%
    04:00 +2°C° 0 mm 3 m/s 729 mmHg 82%
    05:00 +2°C° 0 mm 3 m/s 729 mmHg 81%
    06:00 +2°C° 0 mm 3 m/s 729 mmHg 81%
    07:00 +3°C° 0 mm 3 m/s 729 mmHg 80%
    08:00 +5°C° 0 mm 3 m/s 729 mmHg 73%
    09:00 +8°C° 0 mm 3 m/s 729 mmHg 65%
    10:00 +10°C° 0 mm 3 m/s 730 mmHg 57%
    11:00 +12°C° 0 mm 2 m/s 730 mmHg 52%
    12:00 +14°C° 0 mm 2 m/s 730 mmHg 48%
    13:00 +15°C° 0 mm 2 m/s 730 mmHg 43%
    14:00 +15°C° 0 mm 1 m/s 730 mmHg 45%
    15:00 +15°C° 0 mm 1 m/s 730 mmHg 46%
    16:00 +15°C° 0 mm 1 m/s 730 mmHg 47%
    17:00 +13°C° 0 mm 2 m/s 730 mmHg 55%
    18:00 +9°C° 0 mm 2 m/s 730 mmHg 64%
    19:00 +7°C° 0 mm 2 m/s 730 mmHg 72%
    20:00 +7°C° 0 mm 2 m/s 730 mmHg 70%
    21:00 +6°C° 0 mm 2 m/s 730 mmHg 68%
    22:00 +6°C° 0 mm 2 m/s 730 mmHg 66%
    23:00 +6°C° 0 mm 2 m/s 730 mmHg 60%

    27 Februarie, Miercuri

    Timp Temperatura Precipitaţii Vânt Presiune Umiditate
    00:00 +6°C° 0 mm 2 m/s 729 mmHg 54%
    01:00 +6°C° 0 mm 2 m/s 729 mmHg 48%
    02:00 +6°C° 0 mm 2 m/s 729 mmHg 48%
    03:00 +6°C° 0 mm 2 m/s 729 mmHg 48%
    04:00 +5°C° 0 mm 3 m/s 729 mmHg 48%
    05:00 +5°C° 0 mm 3 m/s 729 mmHg 51%
    06:00 +5°C° 0 mm 3 m/s 729 mmHg 55%
    07:00 +6°C° 0 mm 2 m/s 729 mmHg 58%
    08:00 +8°C° 0 mm 2 m/s 729 mmHg 57%
    09:00 +12°C° 0 mm 2 m/s 729 mmHg 55%
    10:00 +15°C° 0 mm 1 m/s 730 mmHg 54%
    11:00 +16°C° 0 mm 2 m/s 730 mmHg 50%
    12:00 +17°C° 0 mm 2 m/s 730 mmHg 47%
    13:00 +18°C° 0 mm 2 m/s 730 mmHg 43%
    14:00 +17°C° 0 mm 2 m/s 729 mmHg 41%
    15:00 +17°C° 0 mm 2 m/s 729 mmHg 39%
    16:00 +17°C° 0 mm 2 m/s 729 mmHg 37%
    17:00 +14°C° 0 mm 2 m/s 729 mmHg 39%
    18:00 +12°C° 0 mm 2 m/s 729 mmHg 42%
    19:00 +8°C° 0 mm 3 m/s 729 mmHg 45%
    20:00 +8°C° 0 mm 3 m/s 729 mmHg 43%
    21:00 +8°C° 0 mm 3 m/s 729 mmHg 40%
    22:00 +7°C° 0 mm 3 m/s 729 mmHg 37%
    23:00 +7°C° 0 mm 2 m/s 729 mmHg 38%
    Arată mai mult